NSZ3859 EGPH-EKBI

Flight info

Callsign NSZ3859
Flight time 1h 14m
Altitude 39000
Route TLA Y96 HAVEN DCT OTBUN DCT SURAT DCT PETIL L983 AMRAM P60 NARBA DCT GELBA
Aircraft A320/M-SDFGHIJ1RWXY/L

Departure

Time 2026-05-07 11:56
Airport Edinburgh Airport (EGPH)

Arrival

Time 2026-05-07 13:11
Airport Billund Airport (EKBI)
Time Latitude Longitude Altitude Speed Heading
2026-05-07 11:20 55.94795 -3.35686 117 ft 0 kts 208°
2026-05-07 11:45 55.94800 -3.35681 139 ft 4 kts 209°
2026-05-07 11:46 55.94822 -3.35656 113 ft 4 kts 218°
2026-05-07 11:46 55.94841 -3.35623 115 ft 4 kts 239°
2026-05-07 11:46 55.94848 -3.35584 113 ft 3 kts 294°
2026-05-07 11:46 55.94844 -3.35572 114 ft 0 kts 298°
2026-05-07 11:48 55.94844 -3.35571 114 ft 0 kts 298°
2026-05-07 11:50 55.94848 -3.35585 113 ft 3 kts 298°
2026-05-07 11:50 55.94872 -3.35661 113 ft 10 kts 298°
2026-05-07 11:50 55.94909 -3.35781 114 ft 12 kts 298°
2026-05-07 11:50 55.94967 -3.35857 116 ft 12 kts
2026-05-07 11:51 55.95044 -3.35798 114 ft 11 kts 30°
2026-05-07 11:51 55.95110 -3.35838 115 ft 13 kts 300°
2026-05-07 11:51 55.95171 -3.35952 113 ft 13 kts 331°
2026-05-07 11:51 55.95239 -3.35966 113 ft 11 kts 44°
2026-05-07 11:52 55.95285 -3.35834 111 ft 14 kts 60°
2026-05-07 11:52 55.95334 -3.35691 115 ft 13 kts 58°
2026-05-07 11:52 55.95384 -3.35539 114 ft 15 kts 59°
2026-05-07 11:52 55.95425 -3.35425 113 ft 8 kts 53°
2026-05-07 11:53 55.95477 -3.35416 113 ft 7 kts 331°
2026-05-07 11:53 55.95495 -3.35436 113 ft 0 kts 328°
2026-05-07 11:54 55.95503 -3.35444 112 ft 4 kts 328°
2026-05-07 11:54 55.95540 -3.35486 113 ft 9 kts 328°
2026-05-07 11:54 55.95568 -3.35580 113 ft 10 kts 234°
2026-05-07 11:55 55.95559 -3.35602 113 ft 0 kts 234°
2026-05-07 11:55 55.95557 -3.35608 113 ft 7 kts 235°
2026-05-07 11:55 55.95393 -3.36090 111 ft 81 kts 238°
2026-05-07 11:55 55.94999 -3.37251 112 ft 135 kts 239°
2026-05-07 11:56 55.94463 -3.38844 450 ft 150 kts 236°
2026-05-07 11:56 55.93923 -3.40421 1208 ft 148 kts 234°
2026-05-07 11:56 55.93362 -3.42026 1767 ft 161 kts 234°
2026-05-07 11:56 55.92735 -3.43805 2117 ft 183 kts 234°
2026-05-07 11:57 55.92017 -3.45850 2485 ft 207 kts 234°
2026-05-07 11:57 55.91210 -3.48152 3006 ft 229 kts 236°
2026-05-07 11:57 55.90357 -3.50612 3921 ft 236 kts 237°
2026-05-07 11:57 55.89493 -3.53124 4897 ft 240 kts 232°
2026-05-07 11:58 55.88235 -3.55075 5827 ft 244 kts 207°
2026-05-07 11:58 55.86567 -3.55757 6722 ft 254 kts 180°
2026-05-07 11:58 55.84816 -3.55047 7599 ft 262 kts 166°
2026-05-07 11:58 55.83070 -3.54044 8505 ft 265 kts 166°
2026-05-07 11:59 55.81298 -3.53017 9377 ft 270 kts 166°
2026-05-07 11:59 55.79505 -3.51981 10178 ft 277 kts 166°
2026-05-07 11:59 55.77593 -3.50892 10457 ft 300 kts 166°
2026-05-07 11:59 55.75550 -3.49737 10927 ft 314 kts 166°
2026-05-07 12:00 55.73450 -3.48543 11658 ft 318 kts 166°
2026-05-07 12:00 55.71334 -3.47332 12429 ft 322 kts 165°
2026-05-07 12:00 55.69184 -3.46102 13166 ft 326 kts 166°
2026-05-07 12:00 55.67013 -3.44865 13931 ft 329 kts 166°
2026-05-07 12:01 55.64817 -3.43624 14562 ft 333 kts 166°
2026-05-07 12:01 55.62592 -3.42371 15176 ft 337 kts 166°
2026-05-07 12:01 55.60339 -3.41110 15784 ft 342 kts 166°
2026-05-07 12:01 55.58056 -3.39835 16368 ft 346 kts 166°
2026-05-07 12:02 55.55771 -3.38559 16931 ft 351 kts 165°
2026-05-07 12:02 55.53503 -3.36845 17538 ft 360 kts 153°
2026-05-07 12:02 55.51499 -3.34108 18142 ft 371 kts 137°
2026-05-07 12:02 55.49936 -3.30443 18673 ft 379 kts 121°
2026-05-07 12:03 55.48958 -3.26082 19213 ft 388 kts 106°
2026-05-07 12:03 55.48445 -3.21389 19776 ft 392 kts 103°
2026-05-07 12:03 55.47948 -3.16654 20369 ft 393 kts 103°
2026-05-07 12:03 55.47444 -3.11910 20991 ft 394 kts 103°
2026-05-07 12:04 55.46935 -3.07146 21532 ft 397 kts 103°
2026-05-07 12:04 55.46387 -3.02368 22043 ft 398 kts 107°
2026-05-07 12:04 55.45471 -2.97771 22592 ft 397 kts 117°
2026-05-07 12:04 55.44171 -2.93465 23112 ft 398 kts 122°
2026-05-07 12:05 55.42810 -2.89205 23636 ft 400 kts 122°
2026-05-07 12:05 55.41446 -2.84924 24072 ft 403 kts 122°
2026-05-07 12:05 55.40071 -2.80605 24498 ft 406 kts 122°
2026-05-07 12:05 55.38684 -2.76253 24910 ft 408 kts 122°
2026-05-07 12:06 55.37286 -2.71881 25310 ft 412 kts 122°
2026-05-07 12:06 55.35874 -2.67481 25710 ft 414 kts 122°
2026-05-07 12:06 55.34451 -2.63059 26116 ft 417 kts 122°
2026-05-07 12:06 55.33013 -2.58615 26517 ft 420 kts 122°
2026-05-07 12:07 55.31564 -2.54143 26926 ft 423 kts 122°
2026-05-07 12:07 55.30260 -2.49487 27307 ft 428 kts 113°
2026-05-07 12:07 55.29426 -2.44437 27688 ft 434 kts 102°
2026-05-07 12:07 55.29122 -2.39138 28068 ft 439 kts 92°
2026-05-07 12:08 55.29365 -2.33830 28445 ft 444 kts 81°
2026-05-07 12:08 55.30043 -2.28522 28825 ft 447 kts 78°
2026-05-07 12:08 55.30754 -2.23193 29215 ft 450 kts 78°
2026-05-07 12:08 55.31462 -2.17831 29608 ft 452 kts 78°
2026-05-07 12:09 55.32168 -2.12433 30018 ft 454 kts 78°
2026-05-07 12:09 55.32871 -2.07013 30362 ft 457 kts 78°
2026-05-07 12:09 55.33572 -2.01562 30700 ft 459 kts 78°
2026-05-07 12:09 55.34272 -1.96089 31056 ft 461 kts 78°
2026-05-07 12:10 55.34976 -1.90586 31398 ft 462 kts 78°
2026-05-07 12:10 55.35679 -1.85071 31865 ft 461 kts 79°
2026-05-07 12:10 55.36380 -1.79587 32376 ft 460 kts 79°
2026-05-07 12:10 55.37080 -1.74112 32882 ft 458 kts 79°
2026-05-07 12:11 55.37775 -1.68660 33374 ft 456 kts 79°
2026-05-07 12:11 55.38463 -1.63228 33865 ft 455 kts 79°
2026-05-07 12:11 55.39146 -1.57801 34279 ft 454 kts 79°
2026-05-07 12:11 55.39824 -1.52371 34662 ft 454 kts 79°
2026-05-07 12:12 55.40500 -1.46946 35006 ft 454 kts 79°
2026-05-07 12:12 55.41176 -1.41512 35337 ft 455 kts 79°
2026-05-07 12:12 55.41849 -1.36076 35667 ft 455 kts 79°
2026-05-07 12:12 55.42519 -1.30630 35976 ft 456 kts 79°
2026-05-07 12:13 55.43188 -1.25178 36302 ft 456 kts 79°
2026-05-07 12:13 55.43857 -1.19718 36596 ft 456 kts 79°
2026-05-07 12:13 55.44524 -1.14255 36910 ft 456 kts 79°
2026-05-07 12:13 55.45190 -1.08773 37204 ft 457 kts 79°
2026-05-07 12:14 55.45850 -1.03316 37525 ft 457 kts 79°
2026-05-07 12:14 55.46509 -0.97833 37802 ft 457 kts 79°
2026-05-07 12:14 55.47166 -0.92351 38099 ft 457 kts 79°
2026-05-07 12:14 55.47822 -0.86869 38376 ft 458 kts 79°
2026-05-07 12:15 55.48479 -0.81372 38666 ft 458 kts 79°
2026-05-07 12:15 55.49129 -0.75883 38878 ft 458 kts 80°
2026-05-07 12:15 55.49777 -0.70375 39015 ft 459 kts 80°
2026-05-07 12:16 55.51072 -0.59304 39069 ft 462 kts 80°
2026-05-07 12:16 55.52358 -0.48203 39077 ft 462 kts 80°
2026-05-07 12:17 55.53641 -0.37078 39072 ft 463 kts 80°
2026-05-07 12:17 55.54920 -0.25947 39072 ft 463 kts 80°
2026-05-07 12:18 55.56181 -0.14809 39072 ft 463 kts 80°
2026-05-07 12:18 55.57435 -0.03647 39077 ft 463 kts 80°
2026-05-07 12:19 55.58678 0.07527 39089 ft 463 kts 80°
2026-05-07 12:19 55.59898 0.18700 39096 ft 463 kts 81°
2026-05-07 12:20 55.61117 0.29878 39105 ft 463 kts 81°
2026-05-07 12:20 55.62335 0.41056 39105 ft 462 kts 81°
2026-05-07 12:21 55.63536 0.52229 39113 ft 462 kts 81°
2026-05-07 12:21 55.64720 0.63415 39114 ft 462 kts 81°
2026-05-07 12:22 55.65901 0.74591 39119 ft 461 kts 81°
2026-05-07 12:22 55.67077 0.85752 39119 ft 461 kts 81°
2026-05-07 12:23 55.68234 0.96917 39118 ft 461 kts 81°
2026-05-07 12:23 55.69372 1.08090 39118 ft 460 kts 81°
2026-05-07 12:24 55.70507 1.19258 39126 ft 460 kts 81°
2026-05-07 12:24 55.71632 1.30424 39128 ft 460 kts 81°
2026-05-07 12:25 55.72743 1.41587 39133 ft 460 kts 81°
2026-05-07 12:25 55.73848 1.52757 39132 ft 459 kts 81°
2026-05-07 12:26 55.74938 1.63929 39133 ft 459 kts 82°
2026-05-07 12:26 55.76016 1.75109 39130 ft 459 kts 81°
2026-05-07 12:27 55.77090 1.86289 39148 ft 459 kts 82°
2026-05-07 12:27 55.78149 1.97469 39142 ft 459 kts 82°
2026-05-07 12:28 55.79198 2.08662 39141 ft 459 kts 82°
2026-05-07 12:28 55.80241 2.19861 39140 ft 459 kts 82°
2026-05-07 12:29 55.81272 2.31064 39140 ft 459 kts 82°
2026-05-07 12:29 55.82123 2.40380 39143 ft 459 kts 82°
2026-05-07 12:30 55.83130 2.51595 39149 ft 459 kts 82°
2026-05-07 12:30 55.84134 2.62813 39150 ft 459 kts 82°
2026-05-07 12:31 55.85123 2.74030 39153 ft 459 kts 82°
2026-05-07 12:31 55.86102 2.85259 39145 ft 459 kts 82°
2026-05-07 12:32 55.87072 2.96484 39150 ft 459 kts 82°
2026-05-07 12:32 55.88033 3.07717 39151 ft 459 kts 82°
2026-05-07 12:33 55.89453 3.24570 39157 ft 459 kts 82°
2026-05-07 12:33 55.90391 3.35816 39158 ft 459 kts 83°
2026-05-07 12:34 55.91307 3.47066 39147 ft 459 kts 82°
2026-05-07 12:34 55.91728 3.58382 39148 ft 458 kts 89°
2026-05-07 12:35 55.91966 3.69724 39152 ft 458 kts 89°
2026-05-07 12:35 55.92183 3.81073 39152 ft 458 kts 89°
2026-05-07 12:36 55.92396 3.92422 39153 ft 458 kts 89°
2026-05-07 12:36 55.92602 4.03697 39148 ft 458 kts 89°
2026-05-07 12:37 55.92795 4.15057 39150 ft 458 kts 89°
2026-05-07 12:37 55.92977 4.26423 39151 ft 458 kts 89°
2026-05-07 12:38 55.93148 4.37789 39155 ft 459 kts 89°
2026-05-07 12:38 55.93311 4.49158 39155 ft 459 kts 89°
2026-05-07 12:39 55.93461 4.60532 39152 ft 459 kts 89°
2026-05-07 12:39 55.93598 4.71909 39154 ft 459 kts 90°
2026-05-07 12:40 55.93723 4.83291 39155 ft 459 kts 90°
2026-05-07 12:40 55.93840 4.94671 39156 ft 459 kts 90°
2026-05-07 12:41 55.93952 5.06052 39156 ft 459 kts 90°
2026-05-07 12:41 55.94054 5.17427 39156 ft 459 kts 90°
2026-05-07 12:42 55.94145 5.28814 39153 ft 459 kts 90°
2026-05-07 12:42 55.94213 5.40199 39153 ft 459 kts 90°
2026-05-07 12:43 55.94271 5.51581 39154 ft 459 kts 90°
2026-05-07 12:43 55.94325 5.62964 39154 ft 459 kts 90°
2026-05-07 12:44 55.94372 5.74347 39147 ft 459 kts 90°
2026-05-07 12:44 55.94415 5.85719 39150 ft 459 kts 90°
2026-05-07 12:45 55.94442 5.97107 39148 ft 459 kts 90°
2026-05-07 12:45 55.94448 6.02788 38945 ft 457 kts 90°
2026-05-07 12:45 55.94453 6.08456 38432 ft 457 kts 90°
2026-05-07 12:46 55.94456 6.14119 37840 ft 456 kts 90°
2026-05-07 12:46 55.94461 6.19776 37261 ft 456 kts 90°
2026-05-07 12:46 55.94464 6.25428 36675 ft 455 kts 90°
2026-05-07 12:46 55.94462 6.31069 36111 ft 454 kts 90°
2026-05-07 12:47 55.94452 6.36699 35603 ft 452 kts 90°
2026-05-07 12:47 55.94437 6.42280 35196 ft 448 kts 90°
2026-05-07 12:47 55.94419 6.47807 34788 ft 443 kts 90°
2026-05-07 12:47 55.94399 6.53283 34383 ft 439 kts 89°
2026-05-07 12:48 55.94382 6.58703 33966 ft 435 kts 89°
2026-05-07 12:48 55.94327 6.64081 33435 ft 433 kts 94°
2026-05-07 12:48 55.94042 6.69423 32893 ft 431 kts 95°
2026-05-07 12:48 55.93748 6.74732 32362 ft 429 kts 95°
2026-05-07 12:49 55.93456 6.80007 31836 ft 426 kts 95°
2026-05-07 12:49 55.93162 6.85251 31329 ft 424 kts 95°
2026-05-07 12:49 55.92864 6.90467 30829 ft 421 kts 95°
2026-05-07 12:49 55.92566 6.95643 30334 ft 418 kts 95°
2026-05-07 12:50 55.92271 7.00782 29775 ft 416 kts 95°
2026-05-07 12:50 55.91974 7.05898 29211 ft 414 kts 95°
2026-05-07 12:50 55.91673 7.10982 28662 ft 411 kts 95°
2026-05-07 12:50 55.91373 7.16040 28105 ft 409 kts 95°
2026-05-07 12:51 55.91075 7.21071 27570 ft 407 kts 95°
2026-05-07 12:51 55.90778 7.26082 27039 ft 406 kts 96°
2026-05-07 12:51 55.90480 7.31073 26520 ft 404 kts 96°
2026-05-07 12:51 55.90180 7.36036 26011 ft 403 kts 96°
2026-05-07 12:52 55.89874 7.40992 25512 ft 402 kts 96°
2026-05-07 12:52 55.89565 7.45932 25024 ft 401 kts 96°
2026-05-07 12:52 55.89257 7.50855 24543 ft 399 kts 96°
2026-05-07 12:52 55.88950 7.55767 24070 ft 398 kts 96°
2026-05-07 12:53 55.88647 7.60658 23580 ft 397 kts 96°
2026-05-07 12:53 55.88342 7.65533 23025 ft 395 kts 96°
2026-05-07 12:53 55.88033 7.70380 22476 ft 393 kts 96°
2026-05-07 12:53 55.87806 7.75212 21938 ft 391 kts 92°
2026-05-07 12:54 55.87695 7.80035 21415 ft 389 kts 91°
2026-05-07 12:54 55.87627 7.84835 20897 ft 386 kts 91°
2026-05-07 12:54 55.87580 7.89603 20387 ft 384 kts 91°
2026-05-07 12:54 55.87534 7.94341 19877 ft 381 kts 91°
2026-05-07 12:55 55.87480 7.99039 19395 ft 378 kts 91°
2026-05-07 12:55 55.87416 8.03701 18904 ft 375 kts 91°
2026-05-07 12:55 55.87343 8.08323 18429 ft 372 kts 91°
2026-05-07 12:55 55.87262 8.12916 17883 ft 370 kts 92°
2026-05-07 12:56 55.87178 8.17478 17335 ft 367 kts 92°
2026-05-07 12:56 55.87095 8.22005 16803 ft 365 kts 92°
2026-05-07 12:56 55.87014 8.26502 16274 ft 362 kts 92°
2026-05-07 12:56 55.86934 8.30971 15768 ft 360 kts 92°
2026-05-07 12:57 55.86854 8.35403 15259 ft 357 kts 92°
2026-05-07 12:57 55.86774 8.39805 14759 ft 354 kts 92°
2026-05-07 12:57 55.86693 8.44174 14270 ft 352 kts 92°
2026-05-07 12:57 55.86610 8.48512 13772 ft 349 kts 92°
2026-05-07 12:58 55.86523 8.52823 13269 ft 346 kts 92°
2026-05-07 12:58 55.86435 8.57070 12869 ft 340 kts 92°
2026-05-07 12:58 55.86348 8.61246 12466 ft 335 kts 92°
2026-05-07 12:58 55.86262 8.65367 12068 ft 331 kts 92°
2026-05-07 12:59 55.86175 8.69430 11688 ft 327 kts 92°
2026-05-07 12:59 55.86092 8.73443 11310 ft 323 kts 92°
2026-05-07 12:59 55.86010 8.77363 10939 ft 319 kts 92°
2026-05-07 12:59 55.85923 8.81284 10587 ft 315 kts 92°
2026-05-07 13:00 55.85837 8.85116 10452 ft 304 kts 92°
2026-05-07 13:00 55.85749 8.88810 10329 ft 293 kts 92°
2026-05-07 13:00 55.85663 8.92386 10155 ft 286 kts 92°
2026-05-07 13:00 55.85579 8.95898 9851 ft 283 kts 92°
2026-05-07 13:01 55.85495 8.99389 9501 ft 282 kts 92°
2026-05-07 13:01 55.85411 9.02862 9155 ft 280 kts 92°
2026-05-07 13:01 55.85329 9.06322 8811 ft 279 kts 92°
2026-05-07 13:01 55.85247 9.09765 8451 ft 278 kts 92°
2026-05-07 13:02 55.85164 9.13196 8116 ft 277 kts 92°
2026-05-07 13:02 55.85077 9.16666 7774 ft 276 kts 92°
2026-05-07 13:02 55.84991 9.20030 7448 ft 276 kts 92°
2026-05-07 13:02 55.84907 9.23431 7118 ft 275 kts 92°
2026-05-07 13:03 55.84822 9.26822 6790 ft 274 kts 92°
2026-05-07 13:03 55.84734 9.30211 6405 ft 275 kts 92°
2026-05-07 13:03 55.84641 9.33625 6005 ft 277 kts 93°
2026-05-07 13:03 55.84545 9.37042 5636 ft 277 kts 93°
2026-05-07 13:04 55.84450 9.40456 5281 ft 275 kts 93°
2026-05-07 13:04 55.84356 9.43869 4933 ft 275 kts 93°
2026-05-07 13:04 55.84265 9.47243 4613 ft 269 kts 94°
2026-05-07 13:04 55.83857 9.50429 4403 ft 263 kts 118°
2026-05-07 13:05 55.82693 9.52898 4170 ft 262 kts 147°
2026-05-07 13:05 55.81026 9.54033 3888 ft 257 kts 176°
2026-05-07 13:05 55.79276 9.53646 3624 ft 254 kts 198°
2026-05-07 13:05 55.77609 9.52708 3457 ft 249 kts 201°
2026-05-07 13:06 55.76173 9.51156 3322 ft 238 kts 225°
2026-05-07 13:06 55.75253 9.48815 3191 ft 227 kts 248°
2026-05-07 13:06 55.74935 9.46150 3078 ft 216 kts 266°
2026-05-07 13:06 55.74865 9.43559 3001 ft 204 kts 266°
2026-05-07 13:07 55.74796 9.41072 2818 ft 200 kts 267°
2026-05-07 13:07 55.74727 9.38624 2585 ft 196 kts 266°
2026-05-07 13:07 55.74659 9.36267 2347 ft 187 kts 266°
2026-05-07 13:07 55.74594 9.34015 2090 ft 176 kts 266°
2026-05-07 13:08 55.74534 9.31933 1850 ft 162 kts 266°
2026-05-07 13:08 55.74477 9.30018 1656 ft 148 kts 265°
2026-05-07 13:08 55.74426 9.28269 1458 ft 138 kts 266°
2026-05-07 13:08 55.74376 9.26589 1266 ft 135 kts 266°
2026-05-07 13:09 55.74326 9.24932 1078 ft 134 kts 266°
2026-05-07 13:09 55.74279 9.23292 898 ft 132 kts 266°
2026-05-07 13:09 55.74229 9.21672 672 ft 131 kts 266°
2026-05-07 13:09 55.74183 9.20056 481 ft 130 kts 267°
2026-05-07 13:10 55.74138 9.18449 307 ft 131 kts 266°
2026-05-07 13:10 55.74086 9.16885 216 ft 114 kts 266°
2026-05-07 13:10 55.74052 9.15792 216 ft 64 kts 267°
2026-05-07 13:10 55.74032 9.15123 223 ft 51 kts 267°
2026-05-07 13:11 55.74017 9.14639 216 ft 14 kts 267°
2026-05-07 13:11 55.74038 9.14503 216 ft 12 kts 335°
2026-05-07 13:11 55.74133 9.14492 216 ft 15 kts 358°
2026-05-07 13:11 55.74245 9.14483 219 ft 13 kts 356°
2026-05-07 13:12 55.74334 9.14472 218 ft 14 kts 356°
2026-05-07 13:12 55.74413 9.14471 220 ft 9 kts 17°
2026-05-07 13:12 55.74443 9.14580 218 ft 11 kts 84°
2026-05-07 13:12 55.74461 9.14687 222 ft 9 kts 33°
2026-05-07 13:13 55.74494 9.14687 216 ft 6 kts 354°
2026-05-07 13:13 55.74522 9.14684 216 ft 2 kts 357°
2026-05-07 13:13 55.74529 9.14684 216 ft 0 kts 357°